ARG1574 SANT-SAEZ

Flight info

Callsign ARG1574
Flight time 1h 50m
Altitude 37000
Route PUBER3E PUBER UL550 ROS UT672 MULTA UW24 SNT
Aircraft B738/M-SDE2E3FGHIRWXY/LB1

Departure

Time 2026-04-29 21:17
Airport Teniente Benjamín Matienzo International Airport (SANT)

Arrival

Time 2026-04-29 23:07
Airport Ezeiza International Airport - Ministro Pistarini (SAEZ)
Time Latitude Longitude Altitude Speed Heading
2026-04-29 20:33 -26.83569 -65.10759 1491 ft 0 kts 280°
2026-04-29 21:08 -26.83574 -65.10737 1491 ft 4 kts 298°
2026-04-29 21:08 -26.83591 -65.10716 1476 ft 4 kts 335°
2026-04-29 21:08 -26.83614 -65.10711 1491 ft 2 kts
2026-04-29 21:08 -26.83615 -65.10711 1491 ft 0 kts 10°
2026-04-29 21:11 -26.83612 -65.10711 1491 ft 3 kts
2026-04-29 21:11 -26.83565 -65.10702 1481 ft 8 kts 10°
2026-04-29 21:11 -26.83512 -65.10691 1491 ft 8 kts 10°
2026-04-29 21:11 -26.83451 -65.10660 1481 ft 12 kts 39°
2026-04-29 21:12 -26.83382 -65.10596 1491 ft 13 kts 40°
2026-04-29 21:12 -26.83314 -65.10532 1492 ft 13 kts 40°
2026-04-29 21:12 -26.83248 -65.10470 1492 ft 12 kts 39°
2026-04-29 21:12 -26.83183 -65.10410 1486 ft 12 kts 40°
2026-04-29 21:13 -26.83121 -65.10351 1491 ft 12 kts 40°
2026-04-29 21:13 -26.83058 -65.10297 1480 ft 11 kts 27°
2026-04-29 21:13 -26.82985 -65.10271 1482 ft 11 kts 11°
2026-04-29 21:13 -26.82911 -65.10254 1483 ft 11 kts 12°
2026-04-29 21:14 -26.82839 -65.10238 1489 ft 10 kts 11°
2026-04-29 21:14 -26.82769 -65.10224 1489 ft 10 kts
2026-04-29 21:14 -26.82700 -65.10211 1476 ft 10 kts
2026-04-29 21:14 -26.82635 -65.10198 1485 ft 10 kts 10°
2026-04-29 21:15 -26.82567 -65.10185 1486 ft 11 kts
2026-04-29 21:15 -26.82488 -65.10177 1479 ft 12 kts 346°
2026-04-29 21:15 -26.82412 -65.10202 1481 ft 11 kts 357°
2026-04-29 21:15 -26.82385 -65.10161 1491 ft 6 kts 130°
2026-04-29 21:16 -26.82424 -65.10158 1491 ft 6 kts 189°
2026-04-29 21:16 -26.82464 -65.10165 1491 ft 6 kts 190°
2026-04-29 21:16 -26.82528 -65.10178 1489 ft 28 kts 190°
2026-04-29 21:16 -26.83027 -65.10276 1482 ft 114 kts 189°
2026-04-29 21:17 -26.84054 -65.10479 1528 ft 181 kts 189°
2026-04-29 21:17 -26.85380 -65.10711 2306 ft 196 kts 188°
2026-04-29 21:17 -26.86702 -65.10797 3530 ft 190 kts 175°
2026-04-29 21:17 -26.88053 -65.10458 4229 ft 209 kts 160°
2026-04-29 21:18 -26.89385 -65.09749 4797 ft 215 kts 149°
2026-04-29 21:18 -26.90649 -65.08817 5381 ft 221 kts 145°
2026-04-29 21:18 -26.91950 -65.07814 5753 ft 239 kts 147°
2026-04-29 21:18 -26.93407 -65.06783 6158 ft 253 kts 148°
2026-04-29 21:19 -26.94972 -65.05705 6547 ft 274 kts 148°
2026-04-29 21:19 -26.96621 -65.04568 7282 ft 281 kts 148°
2026-04-29 21:19 -26.98272 -65.03429 8096 ft 284 kts 148°
2026-04-29 21:19 -26.99964 -65.02261 8909 ft 287 kts 148°
2026-04-29 21:20 -27.01677 -65.01078 9690 ft 291 kts 149°
2026-04-29 21:20 -27.03415 -64.99876 10440 ft 296 kts 149°
2026-04-29 21:20 -27.05184 -64.98652 11169 ft 301 kts 149°
2026-04-29 21:20 -27.07004 -64.97393 11632 ft 317 kts 150°
2026-04-29 21:21 -27.08950 -64.96049 11768 ft 340 kts 149°
2026-04-29 21:21 -27.11035 -64.94604 11920 ft 362 kts 149°
2026-04-29 21:21 -27.13219 -64.93089 12243 ft 375 kts 149°
2026-04-29 21:21 -27.15453 -64.91537 12844 ft 379 kts 149°
2026-04-29 21:22 -27.17703 -64.89974 13537 ft 380 kts 149°
2026-04-29 21:22 -27.19955 -64.88409 14200 ft 382 kts 149°
2026-04-29 21:22 -27.22223 -64.86831 14820 ft 384 kts 150°
2026-04-29 21:22 -27.24503 -64.85246 15437 ft 387 kts 150°
2026-04-29 21:23 -27.26797 -64.83650 16047 ft 389 kts 150°
2026-04-29 21:23 -27.29104 -64.82046 16631 ft 391 kts 150°
2026-04-29 21:23 -27.31404 -64.80445 17199 ft 394 kts 151°
2026-04-29 21:23 -27.33735 -64.78820 17781 ft 395 kts 151°
2026-04-29 21:24 -27.36081 -64.77185 18336 ft 398 kts 151°
2026-04-29 21:24 -27.38444 -64.75538 18892 ft 400 kts 151°
2026-04-29 21:24 -27.40816 -64.73882 19437 ft 402 kts 151°
2026-04-29 21:24 -27.42420 -64.72761 19778 ft 403 kts 151°
2026-04-29 21:25 -27.45591 -64.70546 20424 ft 407 kts 152°
2026-04-29 21:25 -27.47184 -64.69433 20763 ft 407 kts 152°
2026-04-29 21:25 -27.49600 -64.67745 21267 ft 409 kts 152°
2026-04-29 21:25 -27.52022 -64.66053 21726 ft 411 kts 152°
2026-04-29 21:26 -27.54461 -64.64358 22177 ft 413 kts 152°
2026-04-29 21:26 -27.56929 -64.62689 22619 ft 415 kts 153°
2026-04-29 21:26 -27.59417 -64.61026 23063 ft 416 kts 153°
2026-04-29 21:26 -27.61918 -64.59361 23499 ft 418 kts 153°
2026-04-29 21:27 -27.64420 -64.57691 23927 ft 419 kts 153°
2026-04-29 21:27 -27.66925 -64.56015 24545 ft 413 kts 153°
2026-04-29 21:27 -27.69353 -64.54384 25514 ft 400 kts 153°
2026-04-29 21:27 -27.71713 -64.52793 26373 ft 391 kts 154°
2026-04-29 21:28 -27.74049 -64.51221 26884 ft 392 kts 154°
2026-04-29 21:28 -27.76405 -64.49639 27187 ft 397 kts 154°
2026-04-29 21:28 -27.78791 -64.48035 27529 ft 400 kts 154°
2026-04-29 21:28 -27.81189 -64.46422 27908 ft 403 kts 154°
2026-04-29 21:29 -27.83610 -64.44791 28268 ft 405 kts 154°
2026-04-29 21:29 -27.86038 -64.43153 28615 ft 408 kts 154°
2026-04-29 21:29 -27.88478 -64.41504 28986 ft 409 kts 154°
2026-04-29 21:29 -27.90933 -64.39846 29308 ft 412 kts 154°
2026-04-29 21:30 -27.93405 -64.38176 29637 ft 415 kts 154°
2026-04-29 21:30 -27.95891 -64.36496 29944 ft 418 kts 154°
2026-04-29 21:30 -27.98389 -64.34807 30284 ft 420 kts 154°
2026-04-29 21:30 -28.00900 -64.33106 30598 ft 422 kts 154°
2026-04-29 21:31 -28.03428 -64.31393 30865 ft 424 kts 154°
2026-04-29 21:31 -28.05965 -64.29674 31133 ft 427 kts 154°
2026-04-29 21:31 -28.08518 -64.27943 31404 ft 429 kts 154°
2026-04-29 21:31 -28.11095 -64.26194 31660 ft 432 kts 154°
2026-04-29 21:32 -28.13678 -64.24441 31922 ft 434 kts 154°
2026-04-29 21:32 -28.16279 -64.22673 32164 ft 437 kts 154°
2026-04-29 21:32 -28.18891 -64.20898 32405 ft 439 kts 154°
2026-04-29 21:32 -28.21512 -64.19115 32655 ft 441 kts 154°
2026-04-29 21:33 -28.24157 -64.17315 32885 ft 443 kts 154°
2026-04-29 21:33 -28.26768 -64.15537 33095 ft 445 kts 154°
2026-04-29 21:33 -28.29433 -64.13723 33294 ft 447 kts 154°
2026-04-29 21:33 -28.32112 -64.11900 33517 ft 449 kts 154°
2026-04-29 21:34 -28.34790 -64.10077 33719 ft 451 kts 154°
2026-04-29 21:34 -28.37494 -64.08234 33910 ft 453 kts 154°
2026-04-29 21:34 -28.40201 -64.06386 34093 ft 455 kts 154°
2026-04-29 21:34 -28.42916 -64.04532 34274 ft 457 kts 154°
2026-04-29 21:35 -28.45647 -64.02667 34458 ft 458 kts 154°
2026-04-29 21:35 -28.48383 -64.00797 34683 ft 459 kts 154°
2026-04-29 21:35 -28.51127 -63.98919 34871 ft 460 kts 154°
2026-04-29 21:35 -28.53873 -63.97038 35033 ft 462 kts 154°
2026-04-29 21:36 -28.56637 -63.95145 35196 ft 464 kts 154°
2026-04-29 21:36 -28.59405 -63.93248 35381 ft 465 kts 154°
2026-04-29 21:36 -28.62176 -63.91347 35587 ft 465 kts 154°
2026-04-29 21:36 -28.64948 -63.89443 35815 ft 465 kts 154°
2026-04-29 21:37 -28.67714 -63.87543 36072 ft 463 kts 155°
2026-04-29 21:37 -28.70476 -63.85644 36256 ft 464 kts 155°
2026-04-29 21:37 -28.73205 -63.83768 36412 ft 465 kts 155°
2026-04-29 21:37 -28.75974 -63.81863 36597 ft 464 kts 155°
2026-04-29 21:38 -28.78732 -63.79964 36888 ft 461 kts 155°
2026-04-29 21:38 -28.84247 -63.76153 36978 ft 464 kts 155°
2026-04-29 21:39 -28.89740 -63.72328 36967 ft 459 kts 155°
2026-04-29 21:39 -28.95165 -63.68544 36976 ft 455 kts 155°
2026-04-29 21:40 -29.00520 -63.64813 36982 ft 454 kts 155°
2026-04-29 21:40 -29.05905 -63.61054 36982 ft 453 kts 155°
2026-04-29 21:41 -29.11283 -63.57296 36985 ft 453 kts 155°
2026-04-29 21:41 -29.16672 -63.53526 36983 ft 454 kts 155°
2026-04-29 21:42 -29.22070 -63.49745 36986 ft 454 kts 156°
2026-04-29 21:42 -29.27470 -63.45958 36984 ft 455 kts 156°
2026-04-29 21:43 -29.32877 -63.42159 36981 ft 456 kts 156°
2026-04-29 21:43 -29.38284 -63.38354 36983 ft 456 kts 156°
2026-04-29 21:44 -29.43705 -63.34537 36981 ft 457 kts 156°
2026-04-29 21:44 -29.49116 -63.30716 36989 ft 457 kts 156°
2026-04-29 21:45 -29.54491 -63.26901 36989 ft 457 kts 156°
2026-04-29 21:45 -29.59896 -63.23061 36991 ft 456 kts 156°
2026-04-29 21:46 -29.65294 -63.19224 36989 ft 456 kts 156°
2026-04-29 21:46 -29.70679 -63.15391 36994 ft 455 kts 156°
2026-04-29 21:47 -29.76067 -63.11552 36989 ft 455 kts 156°
2026-04-29 21:47 -29.81451 -63.07708 36990 ft 455 kts 156°
2026-04-29 21:48 -29.86823 -63.03868 36990 ft 454 kts 156°
2026-04-29 21:48 -29.92187 -63.00028 36990 ft 453 kts 156°
2026-04-29 21:49 -29.97541 -62.96191 36994 ft 453 kts 156°
2026-04-29 21:49 -30.02888 -62.92353 36992 ft 452 kts 157°
2026-04-29 21:50 -30.08186 -62.88547 36986 ft 451 kts 157°
2026-04-29 21:50 -30.13512 -62.84717 36987 ft 449 kts 157°
2026-04-29 21:51 -30.18807 -62.80905 36987 ft 448 kts 157°
2026-04-29 21:51 -30.26724 -62.75193 36990 ft 446 kts 157°
2026-04-29 21:52 -30.31985 -62.71393 36995 ft 445 kts 157°
2026-04-29 21:52 -30.37241 -62.67590 36991 ft 445 kts 157°
2026-04-29 21:53 -30.42482 -62.63798 36991 ft 444 kts 157°
2026-04-29 21:53 -30.47698 -62.60018 36991 ft 444 kts 157°
2026-04-29 21:54 -30.52940 -62.56214 36988 ft 445 kts 157°
2026-04-29 21:54 -30.58191 -62.52398 36993 ft 445 kts 157°
2026-04-29 21:55 -30.63439 -62.48580 36991 ft 446 kts 157°
2026-04-29 21:55 -30.68697 -62.44748 36996 ft 446 kts 157°
2026-04-29 21:56 -30.73953 -62.40915 36989 ft 447 kts 157°
2026-04-29 21:56 -30.79219 -62.37068 36996 ft 447 kts 157°
2026-04-29 21:57 -30.84496 -62.33238 36989 ft 446 kts 158°
2026-04-29 21:57 -30.89760 -62.29417 36993 ft 446 kts 158°
2026-04-29 21:58 -30.95022 -62.25588 36992 ft 445 kts 158°
2026-04-29 21:58 -31.00238 -62.21786 36986 ft 444 kts 158°
2026-04-29 21:59 -31.05473 -62.17968 36985 ft 442 kts 158°
2026-04-29 21:59 -31.10690 -62.14160 36979 ft 441 kts 158°
2026-04-29 22:00 -31.15891 -62.10360 36980 ft 440 kts 158°
2026-04-29 22:00 -31.21072 -62.06565 36980 ft 439 kts 158°
2026-04-29 22:01 -31.26193 -62.02771 36985 ft 438 kts 158°
2026-04-29 22:01 -31.31330 -61.98948 36978 ft 437 kts 158°
2026-04-29 22:02 -31.36454 -61.95134 36981 ft 436 kts 158°
2026-04-29 22:02 -31.41567 -61.91325 36981 ft 435 kts 158°
2026-04-29 22:03 -31.46677 -61.87515 36982 ft 435 kts 158°
2026-04-29 22:03 -31.51775 -61.83707 36987 ft 435 kts 158°
2026-04-29 22:04 -31.56893 -61.79881 36982 ft 436 kts 158°
2026-04-29 22:04 -31.61978 -61.76075 36982 ft 436 kts 158°
2026-04-29 22:05 -31.67088 -61.72244 36977 ft 436 kts 158°
2026-04-29 22:06 -31.74753 -61.66487 36973 ft 436 kts 158°
2026-04-29 22:06 -31.79867 -61.62642 36970 ft 435 kts 158°
2026-04-29 22:07 -31.84965 -61.58801 36972 ft 435 kts 158°
2026-04-29 22:07 -31.90022 -61.54986 36973 ft 435 kts 158°
2026-04-29 22:08 -31.95115 -61.51142 36970 ft 435 kts 158°
2026-04-29 22:08 -32.00205 -61.47295 36971 ft 435 kts 158°
2026-04-29 22:09 -32.05289 -61.43449 36976 ft 434 kts 158°
2026-04-29 22:09 -32.10377 -61.39590 36972 ft 435 kts 158°
2026-04-29 22:10 -32.15469 -61.35725 36972 ft 435 kts 158°
2026-04-29 22:10 -32.20566 -61.31850 36971 ft 435 kts 158°
2026-04-29 22:11 -32.25659 -61.27972 36972 ft 435 kts 158°
2026-04-29 22:11 -32.30747 -61.24093 36975 ft 435 kts 158°
2026-04-29 22:12 -32.35811 -61.20228 36973 ft 435 kts 158°
2026-04-29 22:12 -32.40898 -61.16340 36973 ft 435 kts 158°
2026-04-29 22:13 -32.45991 -61.12442 36968 ft 435 kts 158°
2026-04-29 22:13 -32.51076 -61.08544 36974 ft 435 kts 158°
2026-04-29 22:14 -32.55298 -61.05305 36971 ft 435 kts 158°
2026-04-29 22:14 -32.60383 -61.01394 36963 ft 435 kts 158°
2026-04-29 22:15 -32.65467 -60.97489 36973 ft 436 kts 158°
2026-04-29 22:15 -32.70568 -60.93556 36967 ft 436 kts 158°
2026-04-29 22:16 -32.75662 -60.89632 36974 ft 436 kts 158°
2026-04-29 22:16 -32.80751 -60.85692 36970 ft 436 kts 158°
2026-04-29 22:17 -32.85846 -60.81748 36968 ft 437 kts 158°
2026-04-29 22:17 -32.90914 -60.77830 36961 ft 437 kts 159°
2026-04-29 22:18 -32.96113 -60.74156 36973 ft 433 kts 161°
2026-04-29 22:18 -33.01357 -60.70610 36959 ft 433 kts 161°
2026-04-29 22:19 -33.06583 -60.67044 36963 ft 433 kts 161°
2026-04-29 22:19 -33.11798 -60.63449 36959 ft 433 kts 161°
2026-04-29 22:20 -33.17008 -60.59842 36968 ft 432 kts 161°
2026-04-29 22:20 -33.22223 -60.56223 36955 ft 433 kts 161°
2026-04-29 22:21 -33.27399 -60.52624 36970 ft 432 kts 161°
2026-04-29 22:21 -33.32610 -60.48998 36961 ft 433 kts 161°
2026-04-29 22:22 -33.37823 -60.45370 36966 ft 434 kts 161°
2026-04-29 22:22 -33.43054 -60.41724 36544 ft 440 kts 161°
2026-04-29 22:22 -33.45685 -60.39887 36060 ft 437 kts 161°
2026-04-29 22:23 -33.48305 -60.38053 35482 ft 436 kts 161°
2026-04-29 22:23 -33.50894 -60.36240 34857 ft 436 kts 161°
2026-04-29 22:23 -33.53506 -60.34409 34311 ft 433 kts 161°
2026-04-29 22:23 -33.56085 -60.32596 33903 ft 427 kts 162°
2026-04-29 22:24 -33.58630 -60.30802 33455 ft 422 kts 162°
2026-04-29 22:24 -33.61145 -60.29038 33022 ft 417 kts 162°
2026-04-29 22:24 -33.63640 -60.27290 32584 ft 412 kts 162°
2026-04-29 22:24 -33.66096 -60.25567 32165 ft 408 kts 162°
2026-04-29 22:25 -33.68536 -60.23855 31740 ft 404 kts 162°
2026-04-29 22:25 -33.70948 -60.22160 31329 ft 400 kts 161°
2026-04-29 22:25 -33.73339 -60.20480 30919 ft 397 kts 161°
2026-04-29 22:25 -33.75714 -60.18807 30505 ft 394 kts 161°
2026-04-29 22:26 -33.78065 -60.17154 30101 ft 390 kts 161°
2026-04-29 22:26 -33.80403 -60.15509 29698 ft 388 kts 161°
2026-04-29 22:26 -33.82684 -60.13753 29271 ft 395 kts 153°
2026-04-29 22:26 -33.84735 -60.11500 28874 ft 405 kts 143°
2026-04-29 22:27 -33.86485 -60.08785 28474 ft 414 kts 134°
2026-04-29 22:27 -33.88088 -60.05898 28074 ft 416 kts 133°
2026-04-29 22:27 -33.89708 -60.02945 27668 ft 429 kts 132°
2026-04-29 22:27 -33.91362 -59.99932 27215 ft 432 kts 132°
2026-04-29 22:28 -33.93016 -59.96919 26770 ft 429 kts 132°
2026-04-29 22:28 -33.94658 -59.93937 26337 ft 426 kts 132°
2026-04-29 22:28 -33.96296 -59.90976 25904 ft 423 kts 131°
2026-04-29 22:28 -33.97927 -59.88035 25477 ft 420 kts 131°
2026-04-29 22:29 -33.99528 -59.85154 25064 ft 417 kts 131°
2026-04-29 22:29 -34.01138 -59.82260 24635 ft 415 kts 131°
2026-04-29 22:29 -34.02741 -59.79376 24219 ft 412 kts 131°
2026-04-29 22:29 -34.04333 -59.76512 23814 ft 409 kts 130°
2026-04-29 22:30 -34.05913 -59.73667 23402 ft 407 kts 130°
2026-04-29 22:30 -34.07485 -59.70831 22989 ft 405 kts 130°
2026-04-29 22:30 -34.09045 -59.68014 22580 ft 402 kts 130°
2026-04-29 22:30 -34.10598 -59.65210 22174 ft 400 kts 130°
2026-04-29 22:31 -34.12122 -59.62454 21774 ft 398 kts 130°
2026-04-29 22:31 -34.13653 -59.59683 21374 ft 396 kts 130°
2026-04-29 22:31 -34.15175 -59.56928 20975 ft 393 kts 130°
2026-04-29 22:31 -34.16689 -59.54184 20585 ft 391 kts 130°
2026-04-29 22:32 -34.18194 -59.51454 20184 ft 389 kts 130°
2026-04-29 22:32 -34.19691 -59.48739 19790 ft 387 kts 130°
2026-04-29 22:32 -34.21176 -59.46042 19389 ft 385 kts 130°
2026-04-29 22:32 -34.22652 -59.43353 19002 ft 383 kts 129°
2026-04-29 22:33 -34.24099 -59.40651 18608 ft 382 kts 129°
2026-04-29 22:33 -34.25527 -59.37948 18218 ft 380 kts 128°
2026-04-29 22:33 -34.26941 -59.35258 17832 ft 378 kts 128°
2026-04-29 22:33 -34.28343 -59.32585 17447 ft 376 kts 128°
2026-04-29 22:34 -34.29742 -59.29924 17061 ft 374 kts 128°
2026-04-29 22:34 -34.31137 -59.27270 16681 ft 372 kts 128°
2026-04-29 22:34 -34.32522 -59.24638 16296 ft 370 kts 128°
2026-04-29 22:34 -34.33898 -59.22023 15910 ft 368 kts 128°
2026-04-29 22:35 -34.35269 -59.19415 15533 ft 366 kts 128°
2026-04-29 22:35 -34.36629 -59.16826 15156 ft 363 kts 128°
2026-04-29 22:35 -34.37981 -59.14252 14780 ft 361 kts 128°
2026-04-29 22:35 -34.39329 -59.11687 14402 ft 359 kts 127°
2026-04-29 22:36 -34.40665 -59.09144 14028 ft 357 kts 127°
2026-04-29 22:36 -34.41994 -59.06608 13655 ft 355 kts 127°
2026-04-29 22:36 -34.43315 -59.04086 13277 ft 353 kts 127°
2026-04-29 22:36 -34.44609 -59.01611 12910 ft 352 kts 127°
2026-04-29 22:37 -34.45929 -58.99087 12537 ft 349 kts 127°
2026-04-29 22:37 -34.47227 -58.96603 12169 ft 348 kts 127°
2026-04-29 22:37 -34.48519 -58.94130 11789 ft 346 kts 127°
2026-04-29 22:37 -34.49784 -58.91706 11422 ft 344 kts 127°
2026-04-29 22:38 -34.51057 -58.89265 11052 ft 342 kts 127°
2026-04-29 22:38 -34.52324 -58.86834 10667 ft 340 kts 127°
2026-04-29 22:38 -34.53582 -58.84418 10363 ft 336 kts 126°
2026-04-29 22:38 -34.54808 -58.82058 10231 ft 326 kts 126°
2026-04-29 22:39 -34.56003 -58.79756 10087 ft 318 kts 127°
2026-04-29 22:39 -34.57167 -58.77516 9940 ft 310 kts 127°
2026-04-29 22:39 -34.58309 -58.75320 9676 ft 307 kts 127°
2026-04-29 22:39 -34.59442 -58.73141 9396 ft 304 kts 127°
2026-04-29 22:40 -34.60566 -58.70976 9103 ft 302 kts 126°
2026-04-29 22:40 -34.61687 -58.68817 8810 ft 301 kts 127°
2026-04-29 22:40 -34.62799 -58.66673 8520 ft 299 kts 127°
2026-04-29 22:40 -34.63902 -58.64545 8222 ft 297 kts 127°
2026-04-29 22:41 -34.64999 -58.62427 7931 ft 296 kts 127°
2026-04-29 22:41 -34.66092 -58.60317 7647 ft 294 kts 127°
2026-04-29 22:41 -34.67176 -58.58219 7354 ft 293 kts 127°
2026-04-29 22:41 -34.68255 -58.56130 7074 ft 291 kts 127°
2026-04-29 22:42 -34.69329 -58.54048 6778 ft 290 kts 127°
2026-04-29 22:42 -34.70409 -58.51957 6272 ft 292 kts 126°
2026-04-29 22:42 -34.71468 -58.49892 5966 ft 284 kts 126°
2026-04-29 22:42 -34.72504 -58.47883 5676 ft 276 kts 126°
2026-04-29 22:43 -34.73457 -58.45938 5437 ft 269 kts 118°
2026-04-29 22:43 -34.73938 -58.43769 5231 ft 263 kts 102°
2026-04-29 22:43 -34.74253 -58.41594 4992 ft 261 kts 104°
2026-04-29 22:43 -34.74591 -58.39424 4783 ft 263 kts 104°
2026-04-29 22:44 -34.74945 -58.37215 4697 ft 270 kts 104°
2026-04-29 22:44 -34.75305 -58.34970 4579 ft 268 kts 104°
2026-04-29 22:44 -34.75648 -58.32806 4481 ft 253 kts 104°
2026-04-29 22:44 -34.75969 -58.30764 4421 ft 240 kts 104°
2026-04-29 22:45 -34.76287 -58.28764 4418 ft 245 kts 104°
2026-04-29 22:45 -34.76621 -58.26680 4394 ft 253 kts 104°
2026-04-29 22:45 -34.76961 -58.24560 4395 ft 257 kts 104°
2026-04-29 22:45 -34.77300 -58.22448 4388 ft 257 kts 104°
2026-04-29 22:46 -34.77641 -58.20322 4379 ft 256 kts 104°
2026-04-29 22:46 -34.77987 -58.18175 4272 ft 256 kts 104°
2026-04-29 22:46 -34.78330 -58.16058 4570 ft 256 kts 104°
2026-04-29 22:46 -34.78679 -58.13919 4935 ft 259 kts 104°
2026-04-29 22:47 -34.79017 -58.11775 4936 ft 257 kts 104°
2026-04-29 22:47 -34.79353 -58.09627 4951 ft 259 kts 104°
2026-04-29 22:47 -34.79708 -58.07480 4949 ft 257 kts 109°
2026-04-29 22:47 -34.80535 -58.05627 4952 ft 246 kts 140°
2026-04-29 22:48 -34.81942 -58.04596 4959 ft 232 kts 172°
2026-04-29 22:48 -34.83497 -58.04604 4977 ft 221 kts 197°
2026-04-29 22:48 -34.84992 -58.05078 4968 ft 222 kts 200°
2026-04-29 22:48 -34.86480 -58.05597 4970 ft 223 kts 200°
2026-04-29 22:49 -34.87921 -58.06272 4950 ft 220 kts 218°
2026-04-29 22:49 -34.88855 -58.07675 4964 ft 215 kts 249°
2026-04-29 22:49 -34.88991 -58.09482 4977 ft 217 kts 274°
2026-04-29 22:49 -34.88767 -58.11311 4964 ft 219 kts 276°
2026-04-29 22:50 -34.88519 -58.13118 4957 ft 220 kts 276°
2026-04-29 22:50 -34.88259 -58.14955 4947 ft 220 kts 277°
2026-04-29 22:50 -34.87994 -58.16803 4963 ft 227 kts 277°
2026-04-29 22:50 -34.87717 -58.18751 4963 ft 237 kts 277°
2026-04-29 22:51 -34.87429 -58.20752 4962 ft 241 kts 277°
2026-04-29 22:51 -34.87142 -58.22756 4949 ft 239 kts 277°
2026-04-29 22:51 -34.86574 -58.26742 4944 ft 239 kts 277°
2026-04-29 22:52 -34.86291 -58.28735 4942 ft 239 kts 277°
2026-04-29 22:52 -34.86006 -58.30723 4945 ft 238 kts 277°
2026-04-29 22:52 -34.85720 -58.32711 4942 ft 238 kts 277°
2026-04-29 22:52 -34.85442 -58.34675 4945 ft 239 kts 277°
2026-04-29 22:53 -34.85155 -58.36668 4947 ft 239 kts 277°
2026-04-29 22:53 -34.84856 -58.38660 4947 ft 240 kts 279°
2026-04-29 22:53 -34.84445 -58.40633 4943 ft 240 kts 282°
2026-04-29 22:53 -34.84008 -58.42600 4946 ft 240 kts 282°
2026-04-29 22:54 -34.83569 -58.44566 4940 ft 242 kts 282°
2026-04-29 22:54 -34.83126 -58.46541 4945 ft 242 kts 282°
2026-04-29 22:54 -34.82680 -58.48514 4946 ft 242 kts 282°
2026-04-29 22:54 -34.82230 -58.50489 4946 ft 243 kts 282°
2026-04-29 22:55 -34.81779 -58.52475 4944 ft 243 kts 282°
2026-04-29 22:55 -34.81329 -58.54464 4936 ft 243 kts 282°
2026-04-29 22:55 -34.80877 -58.56444 4933 ft 242 kts 282°
2026-04-29 22:55 -34.80424 -58.58420 4939 ft 242 kts 282°
2026-04-29 22:56 -34.79915 -58.60370 4942 ft 243 kts 288°
2026-04-29 22:56 -34.79255 -58.62250 4825 ft 239 kts 290°
2026-04-29 22:56 -34.78584 -58.64098 4361 ft 237 kts 290°
2026-04-29 22:56 -34.77928 -58.65900 3928 ft 230 kts 290°
2026-04-29 22:57 -34.77285 -58.67666 3405 ft 227 kts 291°
2026-04-29 22:57 -34.76654 -58.69424 3156 ft 229 kts 290°
2026-04-29 22:57 -34.76022 -58.71203 3038 ft 228 kts 290°
2026-04-29 22:57 -34.75397 -58.72971 2997 ft 228 kts 290°
2026-04-29 22:58 -34.74776 -58.74736 2997 ft 226 kts 290°
2026-04-29 22:58 -34.74159 -58.76505 2988 ft 227 kts 290°
2026-04-29 22:58 -34.73543 -58.78280 2983 ft 228 kts 290°
2026-04-29 22:58 -34.72925 -58.80052 2985 ft 229 kts 290°
2026-04-29 22:59 -34.72308 -58.81818 2995 ft 229 kts 290°
2026-04-29 22:59 -34.71682 -58.83601 2994 ft 229 kts 290°
2026-04-29 22:59 -34.71059 -58.85386 2981 ft 229 kts 290°
2026-04-29 22:59 -34.70536 -58.87200 2970 ft 226 kts 275°
2026-04-29 23:00 -34.70885 -58.88999 2992 ft 222 kts 237°
2026-04-29 23:00 -34.71953 -58.90285 3003 ft 214 kts 218°
2026-04-29 23:00 -34.73295 -58.91047 2990 ft 217 kts 197°
2026-04-29 23:00 -34.74819 -58.91095 2990 ft 225 kts 172°
2026-04-29 23:01 -34.75805 -58.90657 2985 ft 231 kts 154°
2026-04-29 23:01 -34.77291 -58.88741 2990 ft 241 kts 118°
2026-04-29 23:01 -34.77632 -58.87451 2995 ft 244 kts 103°
2026-04-29 23:01 -34.77839 -58.85399 2994 ft 245 kts 96°
2026-04-29 23:02 -34.77968 -58.83357 2968 ft 235 kts 96°
2026-04-29 23:02 -34.78125 -58.80874 2972 ft 212 kts 96°
2026-04-29 23:02 -34.78247 -58.79114 2978 ft 206 kts 97°
2026-04-29 23:02 -34.78330 -58.77945 2986 ft 207 kts 97°
2026-04-29 23:03 -34.78457 -58.76198 2992 ft 208 kts 97°
2026-04-29 23:03 -34.78585 -58.74437 2996 ft 209 kts 97°
2026-04-29 23:03 -34.78749 -58.72672 2928 ft 212 kts 103°
2026-04-29 23:03 -34.79108 -58.70920 2634 ft 211 kts 107°
2026-04-29 23:04 -34.79440 -58.69224 2350 ft 206 kts 104°
2026-04-29 23:04 -34.79734 -58.67573 2073 ft 194 kts 104°
2026-04-29 23:04 -34.80008 -58.66024 1850 ft 179 kts 104°
2026-04-29 23:04 -34.80258 -58.64608 1587 ft 164 kts 103°
2026-04-29 23:05 -34.80496 -58.63270 1382 ft 159 kts 103°
2026-04-29 23:05 -34.80727 -58.61966 1171 ft 155 kts 103°
2026-04-29 23:05 -34.80956 -58.60679 974 ft 155 kts 103°
2026-04-29 23:05 -34.81184 -58.59402 769 ft 155 kts 103°
2026-04-29 23:06 -34.81420 -58.58110 599 ft 157 kts 102°
2026-04-29 23:06 -34.81646 -58.56809 392 ft 157 kts 102°
2026-04-29 23:06 -34.81870 -58.55526 150 ft 153 kts 102°
2026-04-29 23:06 -34.82089 -58.54323 82 ft 126 kts 102°
2026-04-29 23:07 -34.82228 -58.53541 85 ft 63 kts 102°
2026-04-29 23:07 -34.82298 -58.53155 83 ft 39 kts 102°
2026-04-29 23:07 -34.82332 -58.52961 82 ft 13 kts 102°
2026-04-29 23:07 -34.82294 -58.52888 82 ft 12 kts 354°
2026-04-29 23:08 -34.82212 -58.52915 83 ft 12 kts 343°
2026-04-29 23:08 -34.82131 -58.52943 84 ft 12 kts 344°
2026-04-29 23:08 -34.82055 -58.52977 81 ft 12 kts 325°
2026-04-29 23:08 -34.82017 -58.53060 77 ft 11 kts 281°
2026-04-29 23:09 -34.82000 -58.53152 75 ft 11 kts 283°
2026-04-29 23:09 -34.81983 -58.53241 75 ft 11 kts 284°
2026-04-29 23:09 -34.81964 -58.53327 68 ft 10 kts 284°
2026-04-29 23:09 -34.81948 -58.53411 70 ft 10 kts 283°
2026-04-29 23:10 -34.81932 -58.53492 74 ft 10 kts 283°
2026-04-29 23:10 -34.81917 -58.53570 67 ft 9 kts 283°
2026-04-29 23:10 -34.81892 -58.53629 70 ft 8 kts 315°
2026-04-29 23:10 -34.81847 -58.53662 67 ft 7 kts 334°
2026-04-29 23:11 -34.81801 -58.53688 74 ft 7 kts 335°
2026-04-29 23:11 -34.81756 -58.53714 74 ft 7 kts 335°
2026-04-29 23:11 -34.81716 -58.53745 70 ft 7 kts 307°
2026-04-29 23:11 -34.81699 -58.53803 72 ft 8 kts 278°
2026-04-29 23:12 -34.81715 -58.53880 74 ft 11 kts 241°
2026-04-29 23:12 -34.81758 -58.53968 68 ft 14 kts 239°
2026-04-29 23:12 -34.81793 -58.54083 65 ft 15 kts 262°
2026-04-29 23:12 -34.81781 -58.54193 67 ft 11 kts 281°
2026-04-29 23:13 -34.81773 -58.54273 74 ft 7 kts 289°
2026-04-29 23:13 -34.81729 -58.54278 65 ft 7 kts 14°
2026-04-29 23:13 -34.81683 -58.54264 66 ft 7 kts 12°
2026-04-29 23:13 -34.81653 -58.54256 74 ft 0 kts 12°